Location: Brompton
(51.4000°N, 0.5333°E)
Time: 18:39:19
(UTC+00:00)

Cosmos 1610 Rocket - Pass Details

Date: 11 May 2021
Orbit: 952 x 1003 km, 82.9° (Epoch: 16 June)

Event Time Altitude Azimuth Distance (km) Brightness Sun altitude
Rises 21:31:10 0° 350° (N) 3,652 8.8 -13.8°
Reaches altitude 10° 21:33:42 10° 353° (N) 2,698 7.8 -14.0°
Maximum altitude 21:39:51 71° 78° (ENE) 1,009 4.5 -14.5°
Enters shadow 21:44:05 21° 159° (SSE) 1,999 5.5 -14.9°
